Location: Sungai Liu
(2.3667°N, 113.8667°E)
Time: 14:43:49
(UTC+00:00)

Lacrosse 4 Rocket - Pass Details

Date: 20 May 2022
Orbit: 541 x 611 km, 68.0° (Epoch: 06 July)

Event Time Altitude Azimuth Distance (km) Brightness Sun altitude
Exits shadow 20:14:57 38° 109° (ESE) 922 2.7 -28.5°
Maximum altitude 20:14:58 38° 108° (ESE) 922 2.7 -28.5°
Drops below altitude 10° 20:19:00 10° 40° (NE) 1,928 4.9 -27.5°
Sets 20:21:20 0° 32° (NNE) 2,817 5.8 -27.0°
